Regional Weather Roundup
Issued by NWS

Home | Current Version | Previous Version | Graphics & Text | Print | Product List | Glossary On
Versions: 1 2 3 4 5 6 7 8 9 10 11 12 13 14 15 16 17 18 19 20 21 22 23 24 25 26 27 28 29 30 31 32 33 34 35 36 37 38 39 40 41 42 43 44 45 46 47 48 49 50
000
ASUS45 KPSR 182210
RWRAZ

ARIZONA REGIONAL HOURLY WEATHER ROUNDUP
NATIONAL WEATHER SERVICE PHOENIX AZ
300 PM MST THU SEP 18 2014

NOTE: FAIR INDICATES FEW OR NO CLOUDS BELOW 12,000 FEET WITH NO
SIGNIFICANT WEATHER AND/OR OBSTRUCTIONS TO VISIBILITY.

AZZ001>003-036-182300-
NORTHWEST ARIZONA

CITY           SKY/WX    TMP DP  RH WIND       PRES   REMARKS
BULLHEAD CITY  MOSUNNY  100  59  25 S14       29.64F HX 100
KINGMAN        MOSUNNY   89  55  31 SW9G24    29.85F
$$

AZZ004>008-015-016-018-182300-
NORTH CENTRAL ARIZONA

CITY           SKY/WX    TMP DP  RH WIND       PRES   REMARKS
GRAND CANYON   MOSUNNY   78  47  33 SW8       30.07F
PRESCOTT       PTSUNNY   80  52  37 NW7       29.96F
FLAGSTAFF      PTSUNNY   74  50  42 NE5       30.10F
PAYSON         PTSUNNY   79  57  47 SW9G16    29.98F
PAGE           SUNNY     89  48  24 N8        29.88F
$$

AZZ009>014-017-182300-
NORTHEAST ARIZONA

CITY           SKY/WX    TMP DP  RH WIND       PRES   REMARKS
WINSLOW        SUNNY     84  53  34 VRB5      29.95F
SAINT JOHNS    CLOUDY    75  53  46 NE6       29.99F
SHOW LOW       CLOUDY    68  54  60 W6        30.08S
$$

AZZ023-182300-
GREATER PHOENIX AREA

CITY           SKY/WX    TMP DP  RH WIND       PRES   REMARKS
PHOENIX        MOSUNNY   96  63  33 S7G16     29.70F
BUCKEYE          N/A     93  63  36 SW5       29.72F
GLENDALE       MOSUNNY   93  64  38 S5        29.72F
LUKE AFB       SUNNY     93  64  37 CALM      29.71F
DEER VALLEY    SUNNY     92  61  35 VRB3      29.72F
SCOTTSDALE     SUNNY     93  62  35 S7        29.74F
MESA-FALCON    MOSUNNY   91  63  38 SW6       29.72
MESA-GATEWAY   PTSUNNY   93  63  36 SW7       29.75F
CHANDLER       PTSUNNY   93  63  36 S7        29.73F
$$

AZZ027-028-182300-
SOUTHWEST MARICOPA COUNTY AND PINAL COUNTY

CITY           SKY/WX    TMP DP  RH WIND       PRES   REMARKS
CASA GRANDE    PTSUNNY   90  63  40 CALM      29.76S
GILA BEND      PTCLDY    95  59  30 NE1       29.72F
$$

AZZ503-504-507>509-182300-
SOUTHEAST ARIZONA

CITY           SKY/WX    TMP DP  RH WIND       PRES   REMARKS
TUCSON         CLOUDY    82  65  56 VRB3      29.85F
DAVIS-MONTHAN  PTSUNNY   81  65  57 NW6       29.83F
RYAN FIELD       N/A     84  66  54 NW8       29.83F
NOGALES        LGT RAIN  70  67  90 SW5       29.92R FOG
SIERRA VISTA   PTSUNNY   75  63  64 NW7       29.96S
DOUGLAS        HVY RAIN  70  66  87 SE3       29.93S FOG
SAFFORD        CLOUDY    76  63  64 E3        29.87F
$$

AZZ020-021-025-026-031-182300-
SOUTHWEST ARIZONA

CITY           SKY/WX    TMP DP  RH WIND       PRES   REMARKS
YUMA           MOSUNNY  103  52  18 SW6       29.64F HX 100
$$

CAZ031-033-041-043-047-048-061-182300-
SOUTHERN CALIFORNIA

CITY           SKY/WX    TMP DP  RH WIND       PRES   REMARKS
DOWNTOWN L.A.  SUNNY     78  63  59 W5        29.83F
L.A. AIRPORT   MOSUNNY   75  64  68 SW12      29.84F
SAN DIEGO      MOSUNNY   78  65  63 W13       29.85F
BURBANK        SUNNY     80  60  50 S12G18    29.82F
ONTARIO        MOSUNNY   85  60  42 W14G22    29.82F
RIVERSIDE      SUNNY     86  60  41 VRB6G20   29.82F
PALM SPRINGS   SUNNY    104  36   9 NW17G25   29.66F
EL CENTRO NAS  MOSUNNY  106  41  11 SW20G28   29.61F HX 100
IMPERIAL       SUNNY    105  39  10 SW7       29.61F
BLYTHE         SUNNY    101  64  29 VRB7      29.63F HX 104
NEEDLES        PTSUNNY  102  60  25 SW13      29.65F HX 103
$$

NVZ020-UTZ003-182300-
SOUTHERN NEVADA-UTAH

CITY           SKY/WX    TMP DP  RH WIND       PRES   REMARKS
LAS VEGAS      MOSUNNY   97  31   9 S20G26    29.68F
SALT LAKE CITY MOSUNNY   91  44  19 S20       29.78F
$$

NMZ009-TXZ055-182300-
NEW MEXICO-WEST TEXAS

CITY           SKY/WX    TMP DP  RH WIND       PRES   REMARKS
ALBUQUERQUE    MOSUNNY   81  50  33 S14       29.98F
EL PASO        CLOUDY    71  66  84 N13       29.92F
$$


........................KEY........................
SKY/WX - SKY CONDITION/WEATHER
TMP    - TEMPERATURE IN FAHRENHEIT
DP     - DEW POINT IN FAHRENHEIT
RH     - RELATIVE HUMIDITY IN PERCENT
WIND   - DIRECTION AND SPEED IN MILES PER HOUR (MPH)
VRB    - VARIABLE WIND DIRECTION
PRES   - MEAN SEA LEVEL PRESSURE IN INCHES OF MERCURY
         F - FALLING PRESSURE   R - RISING PRESSURE
         S - STEADY PRESSURE
VSB    - VISIBILITY IN MILES
HX     - HEAT INDEX IN FAHRENHEIT
WCI    - WIND CHILL INDEX IN FAHRENHEIT
TC     - TEMPERATURE IN CELSIUS WHICH IS ALSO KNOWN AS
         TEMPERATURE IN CENTIGRADE
AFB    - AIR FORCE BASE
         LUKE AFB IS LUKE AIR FORCE BASE
         DAVIS-MONTHAN IS DAVIS-MONTHAN AIR FORCE BASE
NAS    - NAVAL AIR STATION
         EL CENTRO NAS IS EL CENTRO NAVAL AIR STATION
N/A    - NOT AVAILABLE


USA.gov is the U.S. government's official web portal to all federal, state and local government web resources and services.